SCOUT A DEB, 2778

Orbit data source: Space-Track

SCOUT A DEB, 2778 is space debris in LEO originally from a launch on Fri, 14 Apr 1967 UTC launched from the Air Force Western Test Range (AFWTR). Debris objects in space refer to the collection of defunct objects orbiting the Earth. Examples of debris include non-operational satellites, rocket bodies, and fragments generated from explosions, collisions, or faulty payload assembly.

Loading next visibility...
Identifier
2778, 1967-034D
Orbit
LEO
Country
Flag of USUS
Related business
Manufacturer
Unknown
Mission
Spacecraft
Bus & Motor
Unknown
Mass
Unknown
Launch date (UTC)
Icon of a cake. It is the launch day of the satellite!1967-04-14 (59 years ago)
Launch vehicle
Unknown
Launch site
Air Force Western Test Range (AFWTR)
Object type
Payload
Rocket body
Debris
Shape & HBR
Unknown shape, 0.1 m
Radar Cross Section
Small (<0.1 m²)

Expand to show TLE details & history
Last TLE update: 13 hours ago

TLE from 13 hours ago
0 SCOUT A DEB
1 02778U 67034D   26104.05114139  .00000103  00000-0  17635-3 0  9990
2 02778  89.8538  38.4609 0121866 174.8693 306.6128 13.35266135864592
Epoch: 2026-04-14T01:13Z
TLE epoch observation values (Epoch: 2026-04-14T01:13:38.616Z)
Latitude
59.739°
Longitude
-2.43224°
Altitude
1,083.357 km
Speed
7.342 km/s
True Right ascension
14h 32m 50s
True Declination
59° 35' 44"
Sunlit
Object was in daylight at epoch
Visualization orbit readout
Latitude
Unknown
Longitude
Unknown
Altitude
Unknown
Speed
Unknown
Apparent Right ascension
Unknown
Apparent Declination
Unknown
Sunlit
N/A
Visualization observer readout
Local Sidereal Time
21:10:57
Azimuth
Unknown
Elevation
Unknown
Doppler factor
Unknown
Orbital elements
Apogee altitude
1,215.462 km
Perigee altitude
1,032.61 km
Semi-major axis
7,502.173 km
Eccentricity
0.01219
Inclination
89.8538°
RAAN
38.4609°
Arg. of periapsis
174.8693°
True anomaly
305.48167°
Mean anomaly
306.6128°
Eccentric anomaly
306.04826°
Mean motion
3.34012 °/min
Orbital period
107.78 mins
BSTAR
0.00017635
Loading maneuver chart data...
Computing Atmospheric mass density...
Loading historical data...
Loading historical data...
Loading historical data...
Loading historical data...
Loading historical data...
Loading historical data...
Loading historical data...

Documentation

Showing up to 5 results
|